GW5559 Weather Reports


time (UTC)temp
C
wind
direction
speed
KPH
gust
KPH
rain 1hr
cm
rain 24hr
cm
rain mn
cm
humidity
%
barometer
mb
20260504202515 21 223 19.3 27.4 0.00 0.00 0.00 44 1007.2
20260504201515 21 214 16.1 22.5 0.00 0.00 0.00 46 1007.4
20260504200515 21 231 19.3 35.4 0.00 0.00 0.00 44 1007.5
20260504195515 21 227 20.9 30.6 0.00 0.00 0.00 46 1007.5
20260504194515 21 226 22.5 33.8 0.00 0.00 0.00 45 1007.7
20260504193515 20 219 24.1 37.0 0.00 0.00 0.00 44 1007.7
20260504192515 20 224 24.1 37.0 0.00 0.00 0.00 44 1007.9
20260504191535 20 235 20.9 35.4 0.00 0.00 0.00 43 1007.9
20260504190515 21 224 20.9 32.2 0.00 0.00 0.00 45 1008.0
20260504185515 20 233 17.7 32.2 0.00 0.00 0.00 45 1008.1
20260504184515 20 227 17.7 37.0 0.00 0.00 0.00 46 1008.4
20260504183515 20 230 22.5 30.6 0.00 0.00 0.00 46 1008.5
20260504182515 20 227 16.1 33.8 0.00 0.00 0.00 44 1008.6
20260504181515 20 241 27.4 43.5 0.00 0.00 0.00 44 1008.7
20260504180535 20 237 22.5 37.0 0.00 0.00 0.00 45 1008.8
20260504175535 19 234 16.1 37.0 0.00 0.00 0.00 46 1008.9
20260504174515 19 234 20.9 33.8 0.00 0.00 0.00 47 1009.0
20260504173515 18 222 19.3 32.2 0.00 0.00 0.00 46 1009.2
20260504172515 18 224 16.1 32.2 0.00 0.00 0.00 49 1009.4
20260504171515 18 235 20.9 33.8 0.00 0.00 0.00 47 1009.6
20260504170515 18 226 24.1 32.2 0.00 0.00 0.00 48 1009.8
20260504150515 15 237 16.1 27.4 0.00 0.00 0.00 52 1011.2
20260504140515 12 210 8.0 16.1 0.00 0.00 0.00 59 1011.7
20260504130516 10 223 6.4 12.9 0.00 0.00 0.00 60 1012.0
20260504110515 7 0.0 0.0 0.00 0.00 0.00 70 1012.1
20260504100517 5 0.0 0.0 0.00 0.00 0.00 72 1011.9
20260504081517 5 250 1.6 4.8 0.00 0.00 0.00 71 1012.2
20260504080517 5 0.0 0.0 0.00 0.00 0.00 70 1012.1
20260504050517 7 248 3.2 6.4 0.00 0.00 0.00 62 1012.0
20260504045517 8 249 4.8 6.4 0.00 0.00 0.00 60 1012.0
20260504044517 8 228 4.8 6.4 0.00 0.00 0.00 61 1012.0
20260504043517 8 237 4.8 8.0 0.00 0.00 0.00 62 1011.9
20260504042517 7 249 6.4 12.9 0.00 0.00 0.00 65 1011.9
20260504041517 7 278 1.6 4.8 0.00 0.00 0.00 66 1011.9
20260504040517 7 278 1.6 3.2 0.00 0.00 0.00 65 1011.7
20260504035516 7 0.0 1.6 0.00 0.00 0.00 65 1011.6
20260504034515 7 278 0.0 1.6 0.00 0.00 0.00 65 1011.4
20260504033516 7 0.0 0.0 0.00 0.00 0.00 62 1011.3
20260504032515 8 0.0 0.0 0.00 0.00 0.00 60 1011.4
20260504031516 8 0.0 1.6 0.00 0.00 0.00 59 1011.2
20260504030515 7 278 1.6 1.6 0.00 0.00 0.00 61 1011.2
20260504025515 8 0.0 0.0 0.00 0.00 0.00 60 1011.2
20260504024516 7 278 1.6 4.8 0.00 0.00 0.00 61 1011.2
20260504023516 8 278 0.0 1.6 0.00 0.00 0.00 58 1011.2
20260504022516 9 0.0 1.6 0.00 0.00 0.00 56 1011.3
20260504021515 8 0.0 0.0 0.00 0.00 0.00 57 1011.3
20260504020515 9 0.0 0.0 0.00 0.00 0.00 55 1011.2
20260504015515 10 278 1.6 4.8 0.00 0.00 0.00 53 1011.2
20260504014516 9 278 3.2 4.8 0.00 0.00 0.00 57 1011.2
20260504013535 10 278 1.6 4.8 0.00 0.00 0.00 54 1011.1
20260504012516 10 278 1.6 3.2 0.00 0.00 0.00 50 1011.2
20260504011516 11 278 3.2 3.2 0.00 0.00 0.00 49 1011.1
20260504010515 10 278 0.0 3.2 0.00 0.00 0.00 50 1011.0
20260504005536 11 278 1.6 4.8 0.00 0.00 0.00 49 1010.9
20260504004515 11 272 3.2 9.7 0.00 0.00 0.00 48 1010.9
20260504003515 11 243 8.0 12.9 0.00 0.00 0.00 46 1010.6
20260504002535 12 248 9.7 12.9 0.00 0.00 0.00 46 1010.4
20260504001515 12 244 9.7 19.3 0.00 0.00 0.00 44 1010.3
20260504000535 12 247 11.3 20.9 0.00 0.00 0.00 42 1010.3
20260503235515 13 253 11.3 24.1 0.00 0.00 0.00 41 1010.2
20260503234516 13 249 16.1 25.7 0.00 0.00 0.00 40 1010.2
20260503233536 13 254 16.1 35.4 0.00 0.00 0.00 40 1010.0
20260503232515 14 248 19.3 30.6 0.00 0.00 0.00 40 1009.9
20260503231535 14 249 12.9 20.9 0.00 0.00 0.00 40 1009.8
20260503230515 14 247 11.3 17.7 0.00 0.00 0.00 39 1009.8
20260503225515 13 256 14.5 30.6 0.00 0.00 0.00 39 1009.9
20260503224515 15 255 17.7 25.7 0.00 0.00 0.00 39 1009.8
20260503223515 14 252 17.7 29.0 0.00 0.00 0.00 39 1009.7
20260503222536 15 267 19.3 37.0 0.00 0.00 0.00 38 1009.7
20260503221515 15 249 16.1 25.7 0.00 0.00 0.00 40 1009.7
20260503220516 14 253 24.1 40.2 0.00 0.00 0.00 38 1009.7
20260503215515 14 256 19.3 32.2 0.00 0.00 0.00 40 1009.8
20260503214515 14 267 12.9 22.5 0.00 0.00 0.00 39 1009.8
20260503213535 14 263 16.1 30.6 0.00 0.00 0.00 39 1009.7
20260503212515 13 246 20.9 32.2 0.00 0.00 0.00 39 1009.6
20260503211515 14 252 24.1 38.6 0.00 0.00 0.00 37 1009.7
20260503210515 14 238 24.1 38.6 0.00 0.00 0.00 38 1009.6
20260503205516 14 250 24.1 32.2 0.00 0.00 0.00 37 1009.6
20260503204515 14 256 14.5 33.8 0.00 0.00 0.00 36 1009.6
20260503203515 14 244 30.6 38.6 0.00 0.00 0.00 38 1009.6